Tracking 25612 objects as of 19-May-2022
HD Live streaming from Space Station
objects crossing your sky now

SL-14 DEB

Track SL-14 DEB now!
10-day predictions


NORAD ID: 45296
Int'l Code: 1991-056AJ
Perigee: 864.9 km
Apogee: 1,226.3 km
Inclination: 82.6 °
Period: 105.9 minutes
Semi major axis: 7416 km
RCS: Unknown
Launch date: August 15, 1991
Source: Commonwealth of Independent States (former USSR) (CIS)
Launch site: PLESETSK MISSILE AND SPACE COMPLEX (PKMTR)

Note: This is SATELLITE DEBRIS
aabbcc
Your satellite tracking list
Your tracking list is empty




NASA's NSSDC Master Catalog

Two Line Element Set (TLE):
1 45296U 91056AJ  22139.11983243  .00007917  00000-0  88245-2 0  9998
2 45296  82.6381  76.9792 0243590  39.7307 322.1400 13.59240560110445
Source of the keplerian elements: AFSPC